Вернуться в каталог

ATLAS 5 CENTAUR DEB

АктивенHEO
NORAD 43955·DEBRIS·🇺🇸 United States

Запущен Sep 17, 2014 с Cape Canaveral Space Force Station

Loading…

Ближайшие Пролёты (ближайшие 24 часа)

TLE

УстаревающийSource: Space-Track

Эпоха: Aug 27, 2026, 17:19 UTC

1 43955U 14055J   26239.72189753 -.00000133  00000-0  00000-0 0  9993
2 43955  21.1102  92.9876 4910426 253.8956  48.4042  1.93302292 56352

Отслеживайте ATLAS 5 CENTAUR DEB в реальном времени с AllMySat

Download on the App Store